QPF
0.00 0.00 0.00 0.00 0.00 0.00 0.00 0.00 0.00 0.00 0.00 0.00 0.00 0.00 0.00 0.00 0.00 0.00 0.00 0.00 0.00 0.00 0.00 0.00 0.00 0.00 0.00 0.00 0.00 0.00 0.00 0.00 0.00 0.00 0.00 0.00 0.00 0.00 0.00 0.00 0.00 0.00 0.00 0.00
0.00 0.00 0.00 0.00 0.00 0.00 0.00 0.00 0.00 0.00 0.00 0.00 0.00 0.00 0.00 0.00 0.00 0.00 0.00 0.00 0.00 0.00 0.00 0.00 0.00 0.00 0.00 0.00 0.00 0.00 0.00 0.00 0.00 0.00 0.00 0.00 0.00 0.00 0.00 0.00 0.00 0.00 0.00 0.00
0.00 0.00 0.00 0.00 0.00 0.00 0.00 0.00 0.00 0.00 0.00 0.00 0.00 0.00 0.00 0.00 0.00 0.00 0.00 0.00 0.00 0.00 0.00 0.00 0.00 0.00 0.00 0.00 0.00 0.00 0.00 0.00 0.00 0.00 0.00 0.00 0.00 0.00 0.00 0.00 0.00 0.00 0.00 0.00
0.01 0.00 0.01 0.00 0.00 0.00 0.00 0.00 0.00 0.00 0.00 0.00 0.00 0.00 0.00 0.00 0.00 0.00 0.00 0.00 0.00 0.00 0.00 0.00 0.00 0.00 0.00 0.00 0.00 0.00 0.00 0.00 0.00 0.00 0.00 0.00 0.00 0.00 0.00 0.00 0.00 0.00 0.00 0.00
0.03 0.01 0.00 0.00 0.00 0.00 0.00 0.00 0.00 0.00 0.00 0.00 0.00 0.00 0.00 0.00 0.00 0.00 0.00 0.00 0.00 0.00 0.00 0.00 0.00 0.00 0.00 0.00 0.00 0.00 0.00 0.00 0.00 0.00 0.00 0.00 0.00 0.00 0.00 0.00 0.00 0.00 0.00 0.00
0.15 0.04 0.02 0.00 0.00 0.00 0.00 0.00 0.00 0.00 0.00 0.00 0.00 0.00 0.00 0.00 0.00 0.00 0.00 0.00 0.00 0.00 0.00 0.00 0.00 0.00 0.00 0.00 0.00 0.00 0.00 0.00 0.00 0.00 0.00 0.00 0.00 0.00 0.00 0.00 0.00 0.00 0.00 0.00
0.11 0.05 0.01 0.00 0.00 0.00 0.00 0.00 0.00 0.00 0.00 0.00 0.00 0.00 0.00 0.00 0.00 0.00 0.00 0.00 0.00 0.00 0.00 0.00 0.00 0.00 0.00 0.00 0.00 0.00 0.00 0.00 0.00 0.00 0.00 0.00 0.00 0.00 0.00 0.00 0.00 0.00 0.00 0.00
0.03 0.11 0.05 0.00 0.00 0.00 0.00 0.00 0.00 0.00 0.00 0.00 0.00 0.00 0.00 0.00 0.00 0.00 0.00 0.00 0.00 0.00 0.00 0.00 0.00 0.00 0.00 0.00 0.00 0.00 0.00 0.00 0.00 0.00 0.00 0.00 0.00 0.00 0.00 0.00 0.00 0.00 0.00 0.00
0.00 0.01 0.00 0.00 0.00 0.00 0.00 0.00 0.00 0.00 0.00 0.00 0.00 0.00 0.00 0.00 0.00 0.00 0.00 0.00 0.00 0.00 0.00 0.00 0.00 0.00 0.00 0.00 0.00 0.00 0.00 0.00 0.00 0.00 0.00 0.00 0.00 0.00 0.00 0.00 0.00 0.00 0.00 0.00
0.09 0.01 0.00 0.00 0.00 0.00 0.00 0.00 0.00 0.00 0.00 0.00 0.00 0.00 0.00 0.00 0.00 0.00 0.00 0.00 0.00 0.00 0.00 0.00 0.00 0.00 0.00 0.00 0.00 0.00 0.00 0.00 0.00 0.00 0.00 0.00 0.00 0.00 0.00 0.00 0.00 0.00 0.00 0.00
0.03 0.00 0.00 0.00 0.00 0.00 0.00 0.00 0.00 0.00 0.00 0.00 0.00 0.00 0.00 0.00 0.00 0.00 0.00 0.00 0.00 0.00 0.00 0.00 0.00 0.00 0.00 0.00 0.00 0.00 0.00 0.00 0.00 0.00 0.00 0.00 0.00 0.00 0.00 0.00 0.00 0.01 0.01 0.01
0.01 0.00 0.00 0.01 0.00 0.00 0.00 0.00 0.00 0.00 0.00 0.00 0.00 0.00 0.00 0.00 0.00 0.00 0.00 0.00 0.00 0.00 0.00 0.00 0.00 0.00 0.00 0.00 0.00 0.00 0.00 0.00 0.00 0.00 0.00 0.00 0.00 0.00 0.00 0.00 0.00 0.00 0.00 0.00
0.00 0.00 0.00 0.00 0.00 0.00 0.00 0.01 0.01 0.01 0.00 0.00 0.00 0.00 0.00 0.00 0.00 0.00 0.00 0.00 0.00 0.00 0.00 0.00 0.00 0.00 0.00 0.00 0.00 0.00 0.00 0.00 0.00 0.00 0.00 0.00 0.00 0.00 0.00 0.00 0.00 0.00 0.00 0.00
0.00 0.02 0.02 0.01 0.01 0.01 0.00 0.00 0.00 0.00 0.00 0.00 0.00 0.00 0.00 0.00 0.01 0.01 0.00 0.00 0.00 0.00 0.00 0.00 0.00 0.00 0.00 0.00 0.00 0.00 0.00 0.00 0.00 0.00 0.00 0.00 0.00 0.00 0.00 0.00 0.00 0.00 0.00 0.00
0.00 0.02 0.03 0.04 0.09 0.07 0.04 0.03 0.01 0.00 0.00 0.02 0.03 0.06 0.07 0.07 0.05 0.01 0.00 0.00 0.00 0.00 0.00 0.00 0.00 0.00 0.00 0.00 0.00 0.00 0.00 0.00 0.00 0.00 0.00 0.00 0.00 0.00 0.00 0.00 0.00 0.00 0.00 0.00
0.01 0.05 0.07 0.06 0.06 0.05 0.05 0.06 0.05 0.05 0.07 0.10 0.12 0.14 0.12 0.06 0.02 0.00 0.00 0.00 0.00 0.00 0.00 0.00 0.00 0.00 0.00 0.00 0.00 0.00 0.00 0.00 0.00 0.00 0.00 0.00 0.00 0.00 0.00 0.00 0.00 0.00 0.00 0.00
0.03 0.03 0.05 0.08 0.10 0.13 0.14 0.11 0.09 0.11 0.15 0.14 0.12 0.09 0.05 0.02 0.01 0.00 0.00 0.00 0.00 0.00 0.00 0.00 0.00 0.00 0.00 0.00 0.00 0.00 0.00 0.00 0.00 0.00 0.00 0.00 0.00 0.00 0.00 0.00 0.00 0.00 0.00 0.00
0.05 0.06 0.11 0.17 0.19 0.18 0.18 0.19 0.19 0.17 0.13 0.11 0.09 0.05 0.03 0.02 0.01 0.00 0.00 0.00 0.00 0.00 0.00 0.00 0.00 0.00 0.00 0.00 0.00 0.00 0.00 0.00 0.00 0.00 0.00 0.00 0.00 0.00 0.00 0.00 0.00 0.00 0.00 0.00
0.08 0.11 0.14 0.16 0.18 0.20 0.20 0.18 0.14 0.11 0.10 0.08 0.05 0.04 0.02 0.01 0.00 0.00 0.00 0.00 0.00 0.00 0.00 0.00 0.00 0.00 0.00 0.00 0.00 0.00 0.00 0.00 0.00 0.00 0.00 0.00 0.00 0.00 0.00 0.00 0.00 0.00 0.00 0.00
0.12 0.15 0.16 0.18 0.19 0.16 0.15 0.13 0.09 0.07 0.06 0.04 0.03 0.02 0.01 0.00 0.00 0.00 0.00 0.00 0.00 0.00 0.00 0.00 0.00 0.00 0.00 0.00 0.00 0.00 0.00 0.00 0.00 0.00 0.00 0.00 0.00 0.00 0.00 0.00 0.00 0.00 0.00 0.00
0.13 0.13 0.13 0.13 0.13 0.13 0.10 0.09 0.06 0.05 0.04 0.03 0.01 0.00 0.00 0.00 0.00 0.00 0.00 0.00 0.00 0.00 0.00 0.00 0.00 0.00 0.00 0.00 0.00 0.00 0.00 0.00 0.00 0.00 0.00 0.00 0.00 0.00 0.00 0.00 0.00 0.00 0.00 0.00
0.10 0.09 0.09 0.08 0.06 0.06 0.05 0.04 0.04 0.03 0.02 0.01 0.00 0.00 0.00 0.00 0.00 0.00 0.00 0.00 0.00 0.00 0.00 0.00 0.00 0.00 0.00 0.00 0.00 0.00 0.00 0.00 0.00 0.00 0.00 0.00 0.00 0.00 0.00 0.00 0.00 0.00 0.00 0.00
0.05 0.04 0.04 0.03 0.02 0.02 0.02 0.01 0.00 0.00 0.00 0.00 0.00 0.00 0.00 0.00 0.00 0.00 0.00 0.00 0.00 0.00 0.00 0.00 0.00 0.00 0.00 0.00 0.00 0.00 0.00 0.00 0.00 0.00 0.00 0.00 0.00 0.00 0.00 0.00 0.00 0.00 0.01 0.01
0.00 0.00 0.00 0.00 0.00 0.00 0.00 0.00 0.00 0.00 0.00 0.00 0.00 0.00 0.00 0.00 0.00 0.00 0.00 0.00 0.00 0.00 0.00 0.00 0.00 0.00 0.00 0.00 0.00 0.00 0.00 0.00 0.00 0.00 0.00 0.00 0.00 0.00 0.00 0.00 0.00 0.00 0.00 0.00
0.00 0.00 0.00 0.00 0.00 0.00 0.00 0.00 0.00 0.00 0.00 0.00 0.00 0.00 0.00 0.00 0.00 0.00 0.00 0.00 0.00 0.00 0.00 0.00 0.00 0.00 0.00 0.00 0.00 0.00 0.00 0.00 0.00 0.00 0.00 0.00 0.00 0.00 0.00 0.00 0.00 0.00 0.00 0.00
0.00 0.00 0.00 0.00 0.00 0.00 0.00 0.00 0.00 0.00 0.00 0.00 0.00 0.00 0.00 0.00 0.00 0.00 0.00 0.00 0.00 0.00 0.00 0.00 0.00 0.00 0.00 0.00 0.00 0.00 0.00 0.00 0.00 0.00 0.00 0.00 0.00 0.00 0.00 0.00 0.00 0.00 0.00 0.01
0.00 0.00 0.00 0.00 0.00 0.00 0.00 0.00 0.00 0.00 0.00 0.00 0.00 0.00 0.00 0.00 0.00 0.00 0.00 0.00 0.00 0.00 0.00 0.00 0.00 0.00 0.00 0.00 0.00 0.00 0.00 0.00 0.00 0.00 0.00 0.00 0.00 0.00 0.00 0.00 0.00 0.00 0.00 0.00
MSLP
997.89 998.02 998.76 998.75 998.81 999.08 999.08 998.23 997.78 997.21 996.90 997.50 998.01 999.18 1000.07 1000.87 1002.00 1003.59 1005.11 1006.68 1008.19 1009.38 1010.65 1012.00 1013.21 1014.39 1015.36 1016.41 1017.09 1017.66 1018.23 1018.61 1018.71 1018.77 1018.85 1018.83 1018.68 1018.57 1018.44 1018.37 1018.17 1017.80 1017.42 1017.06
998.76 998.70 998.88 998.77 998.59 998.42 998.43 998.41 998.06 997.79 996.53 997.22 998.37 999.04 999.76 1000.45 1001.52 1003.04 1004.62 1006.36 1007.97 1009.36 1010.73 1012.02 1013.33 1014.48 1015.56 1016.49 1017.20 1017.72 1018.17 1018.54 1018.73 1018.82 1018.93 1018.78 1018.53 1018.39 1018.20 1017.98 1017.78 1017.40 1017.02 1016.64
999.14 998.71 999.04 998.38 997.56 997.68 997.77 997.61 997.54 996.92 996.61 997.75 998.37 998.91 999.47 999.97 1000.99 1002.35 1003.91 1005.94 1007.66 1009.16 1010.77 1012.10 1013.45 1014.58 1015.63 1016.56 1017.38 1017.83 1018.22 1018.54 1018.74 1018.85 1018.82 1018.66 1018.47 1018.22 1017.91 1017.62 1017.36 1016.99 1016.58 1016.16
1000.19 999.51 998.27 996.15 996.38 996.18 996.33 996.45 996.78 996.44 996.62 997.32 997.81 998.55 999.10 999.57 1000.35 1002.04 1003.86 1005.80 1007.73 1009.46 1011.09 1012.58 1013.91 1014.98 1016.00 1016.83 1017.47 1017.91 1018.27 1018.55 1018.70 1018.74 1018.73 1018.55 1018.27 1018.01 1017.61 1017.43 1017.06 1016.58 1016.13 1015.61
1000.77 998.79 996.89 996.25 996.33 996.38 996.58 995.85 996.03 996.03 996.34 997.42 998.80 999.67 999.55 999.88 1000.38 1001.88 1003.88 1006.13 1008.04 1010.00 1011.63 1013.26 1014.43 1015.35 1016.22 1016.98 1017.53 1017.94 1018.37 1018.55 1018.69 1018.79 1018.70 1018.44 1018.17 1017.86 1017.42 1017.06 1016.73 1016.17 1015.70 1015.11
1000.98 998.74 996.42 994.54 994.98 995.43 996.71 995.59 995.62 995.96 996.10 997.45 999.48 1000.35 999.61 1000.49 1001.42 1002.87 1004.80 1006.80 1008.80 1010.76 1012.48 1013.75 1014.83 1015.62 1016.27 1016.96 1017.54 1018.02 1018.45 1018.63 1018.74 1018.76 1018.64 1018.33 1018.06 1017.68 1017.17 1016.73 1016.27 1015.83 1015.37 1014.94
1000.08 998.60 996.24 994.59 995.43 996.04 996.49 994.28 994.76 995.38 996.27 997.79 999.59 1000.52 1001.04 1001.95 1003.29 1004.67 1006.22 1008.14 1010.07 1011.78 1013.05 1014.27 1015.18 1015.83 1016.44 1017.10 1017.74 1018.34 1018.62 1018.69 1018.59 1018.52 1018.34 1018.08 1017.78 1017.33 1016.76 1016.38 1016.05 1015.72 1015.34 1014.64
999.67 998.04 996.48 995.09 995.96 995.83 995.34 995.54 996.08 996.68 997.41 998.95 1000.64 1002.24 1003.26 1004.49 1005.58 1006.71 1008.03 1009.73 1011.24 1012.40 1013.72 1014.84 1015.59 1016.02 1016.67 1017.44 1018.23 1018.55 1018.63 1018.54 1018.28 1018.26 1018.05 1017.80 1017.32 1016.99 1016.51 1016.14 1015.82 1015.48 1014.96 1014.14
998.36 996.37 995.01 995.09 994.78 995.10 995.98 996.85 997.29 997.81 999.03 1000.06 1001.83 1003.43 1004.83 1006.09 1007.26 1008.48 1009.70 1010.90 1012.06 1013.08 1014.30 1015.45 1016.11 1016.46 1017.05 1017.99 1018.37 1018.58 1018.56 1018.42 1018.20 1018.05 1017.77 1017.45 1017.16 1016.78 1016.33 1016.08 1015.72 1015.37 1014.74 1013.92
999.61 996.66 995.62 995.64 995.77 996.19 996.31 997.28 997.86 998.94 999.69 1001.12 1002.61 1004.35 1005.97 1007.16 1008.32 1009.45 1010.65 1011.62 1012.67 1013.70 1014.78 1015.76 1016.61 1017.16 1017.73 1018.24 1018.56 1018.66 1018.57 1018.41 1018.08 1017.77 1017.39 1017.41 1017.13 1016.58 1016.39 1016.13 1015.81 1015.24 1014.54 1013.81
998.98 998.01 997.17 996.58 996.59 996.48 996.76 997.88 999.02 999.47 1000.95 1001.74 1003.43 1005.38 1006.80 1008.16 1008.92 1010.02 1011.10 1012.25 1013.13 1014.09 1015.12 1016.23 1017.01 1017.56 1018.06 1018.44 1018.67 1018.58 1018.42 1018.19 1018.05 1017.62 1017.37 1017.23 1017.01 1016.72 1016.40 1016.06 1015.62 1014.97 1014.35 1013.70
999.34 998.87 998.63 998.21 998.05 997.14 997.74 998.70 999.94 1001.09 1002.69 1003.07 1004.54 1005.46 1007.05 1009.07 1010.09 1010.75 1011.61 1012.68 1013.62 1014.64 1015.75 1016.72 1017.34 1017.88 1018.33 1018.69 1018.82 1018.61 1018.29 1018.14 1017.94 1017.68 1017.41 1017.30 1016.99 1016.43 1016.24 1015.74 1015.25 1014.60 1013.95 1013.35
1002.51 1001.71 1001.11 1000.30 1000.02 1000.05 999.54 999.87 1000.80 1001.49 1003.09 1004.26 1005.63 1006.75 1007.88 1009.16 1010.80 1011.61 1012.56 1013.42 1014.36 1015.22 1016.20 1016.99 1017.64 1018.17 1018.62 1018.87 1018.83 1018.71 1018.53 1018.25 1017.98 1017.66 1017.52 1017.54 1017.44 1017.00 1016.22 1015.00 1014.85 1014.23 1013.58 1012.88
1004.14 1003.27 1001.72 1001.36 1001.77 1001.72 1001.12 1001.55 1002.41 1003.26 1004.16 1005.32 1006.75 1008.22 1009.29 1010.19 1011.64 1012.39 1013.41 1014.31 1015.29 1015.89 1016.56 1017.27 1017.90 1018.46 1018.85 1018.97 1018.86 1018.73 1018.49 1018.18 1018.02 1017.82 1017.83 1017.82 1017.55 1017.06 1016.65 1015.92 1015.00 1013.88 1013.27 1012.68
1005.26 1004.88 1004.52 1003.41 1003.63 1003.57 1002.77 1002.71 1003.92 1005.70 1005.79 1006.51 1007.77 1009.46 1010.50 1011.52 1012.77 1013.44 1014.42 1015.21 1016.03 1016.62 1017.14 1017.64 1018.18 1018.74 1019.01 1019.05 1018.93 1018.71 1018.54 1018.42 1018.24 1018.10 1018.13 1017.88 1017.49 1017.01 1016.56 1015.97 1015.22 1014.38 1013.42 1012.59
1006.15 1005.52 1005.20 1004.70 1005.16 1005.12 1005.15 1004.15 1004.25 1006.80 1007.97 1007.95 1008.81 1010.28 1011.44 1012.49 1013.62 1014.82 1015.45 1016.02 1016.56 1017.17 1017.70 1018.14 1018.54 1018.93 1019.07 1019.15 1018.96 1018.83 1018.71 1018.67 1018.53 1018.46 1018.28 1017.93 1017.38 1017.02 1016.50 1016.02 1015.28 1014.51 1013.64 1012.91
1007.16 1006.14 1005.75 1005.89 1006.16 1006.34 1006.66 1007.06 1006.21 1007.88 1009.39 1008.91 1010.54 1011.31 1012.83 1013.42 1014.50 1015.70 1016.36 1016.85 1017.43 1017.98 1018.35 1018.62 1019.03 1019.19 1019.24 1019.27 1019.31 1019.09 1019.01 1018.96 1018.90 1018.76 1018.43 1017.98 1017.61 1017.20 1016.63 1016.19 1015.55 1014.77 1013.96 1013.23
1008.25 1007.27 1006.92 1007.15 1007.39 1007.63 1008.11 1009.10 1009.35 1009.65 1010.58 1010.89 1011.89 1012.98 1013.98 1014.77 1015.57 1016.44 1017.01 1017.46 1017.96 1018.54 1018.94 1019.17 1019.33 1019.51 1019.52 1019.59 1019.74 1019.58 1019.42 1019.41 1019.34 1019.09 1018.75 1018.25 1017.81 1017.41 1016.68 1016.27 1015.84 1015.04 1014.09 1013.32
1009.46 1009.19 1009.03 1009.11 1009.05 1009.17 1009.56 1010.42 1011.22 1011.59 1011.84 1012.17 1013.17 1014.14 1015.08 1016.01 1016.57 1017.17 1017.60 1017.83 1018.23 1018.81 1019.50 1019.44 1019.71 1019.87 1019.94 1019.92 1020.00 1019.98 1019.89 1019.86 1019.60 1019.31 1018.98 1018.60 1018.13 1017.62 1017.03 1016.66 1016.17 1015.26 1014.43 1013.47
1011.38 1011.09 1010.88 1010.75 1010.77 1010.87 1011.45 1012.34 1012.76 1013.25 1013.50 1013.66 1014.53 1015.41 1016.21 1016.96 1017.38 1017.66 1017.96 1018.42 1018.90 1019.38 1019.72 1019.87 1020.06 1020.27 1020.47 1020.48 1020.36 1020.37 1020.39 1020.23 1020.01 1019.80 1019.45 1018.95 1018.50 1017.92 1017.59 1016.99 1016.54 1015.64 1014.80 1013.69
1013.14 1013.14 1012.89 1012.71 1012.92 1013.04 1013.37 1013.81 1014.28 1014.80 1015.06 1015.31 1015.76 1016.45 1017.14 1017.72 1018.04 1018.38 1018.59 1018.98 1019.74 1019.86 1019.90 1020.15 1020.40 1020.54 1020.69 1020.81 1020.90 1020.95 1020.84 1020.69 1020.62 1020.38 1020.06 1019.49 1019.10 1018.60 1018.18 1017.71 1017.06 1016.19 1015.23 1014.04
1015.16 1014.91 1014.74 1014.66 1014.63 1014.86 1015.37 1015.74 1016.00 1016.16 1016.30 1016.75 1017.25 1017.60 1017.97 1018.36 1018.78 1019.16 1019.30 1019.51 1020.11 1020.20 1020.39 1020.49 1020.58 1020.78 1021.10 1021.30 1021.44 1021.40 1021.34 1021.27 1021.06 1020.82 1020.52 1020.17 1019.91 1019.23 1018.69 1018.30 1017.69 1016.83 1015.76 1014.49
1016.94 1016.80 1016.75 1016.70 1016.77 1017.14 1017.21 1017.26 1017.20 1017.37 1017.67 1017.93 1018.11 1018.37 1018.68 1018.94 1019.29 1019.57 1019.89 1020.33 1020.51 1020.68 1020.70 1020.63 1020.77 1021.24 1021.54 1021.79 1021.85 1021.85 1021.85 1021.69 1021.45 1021.34 1021.19 1020.92 1020.60 1020.01 1019.39 1018.83 1018.25 1017.45 1016.26 1014.99
1018.32 1018.15 1018.07 1018.03 1017.90 1017.79 1017.99 1018.54 1018.63 1018.86 1018.97 1019.17 1019.34 1019.44 1019.60 1019.95 1020.33 1020.44 1020.31 1020.55 1020.82 1021.08 1021.08 1020.91 1021.21 1021.71 1022.05 1022.30 1022.33 1022.27 1022.18 1022.08 1021.86 1021.92 1021.69 1021.45 1021.01 1020.54 1019.99 1019.36 1018.77 1017.80 1016.67 1015.45
1019.21 1018.99 1018.91 1018.87 1018.90 1019.17 1019.24 1019.37 1019.40 1019.55 1019.62 1019.82 1020.03 1020.26 1020.52 1020.70 1020.55 1021.03 1021.07 1021.30 1021.32 1021.59 1021.65 1021.52 1021.82 1022.29 1022.51 1022.57 1022.53 1022.55 1022.57 1022.56 1022.45 1022.25 1022.06 1022.05 1021.49 1021.05 1020.55 1019.99 1019.37 1018.25 1017.16 1015.98
1019.78 1019.90 1020.05 1020.10 1019.97 1019.84 1019.80 1019.67 1019.73 1019.79 1019.80 1020.09 1020.42 1020.73 1020.97 1021.07 1021.08 1021.46 1021.58 1021.76 1021.92 1021.92 1022.16 1022.46 1022.59 1022.64 1022.70 1022.71 1022.79 1022.88 1022.97 1022.90 1022.79 1022.52 1022.37 1022.32 1021.91 1021.49 1021.05 1020.48 1019.70 1018.71 1017.66 1016.58
1019.99 1020.03 1020.27 1020.36 1020.45 1020.42 1020.24 1020.03 1020.07 1020.21 1020.23 1020.23 1020.51 1021.00 1021.09 1021.32 1021.54 1021.69 1021.86 1022.04 1022.17 1022.24 1022.45 1022.66 1022.62 1022.78 1022.83 1022.90 1023.04 1023.15 1023.15 1023.03 1022.94 1022.75 1022.69 1022.51 1022.19 1021.88 1021.43 1020.86 1020.01 1019.03 1018.04 1017.03
Thickness
5602 5601 5590 5596 5600 5599 5594 5610 5604 5625 5627 5639 5640 5621 5619 5615 5605 5592 5579 5564 5552 5544 5532 5519 5507 5494 5483 5471 5461 5452 5442 5434 5426 5419 5412 5404 5397 5389 5379 5368 5358 5349 5338 5325
5563 5580 5575 5572 5586 5595 5594 5595 5596 5606 5622 5634 5619 5617 5614 5608 5599 5587 5575 5556 5543 5532 5520 5508 5495 5482 5470 5459 5450 5441 5432 5423 5414 5407 5399 5393 5387 5378 5369 5360 5350 5339 5328 5317
5553 5570 5553 5551 5577 5587 5588 5594 5599 5595 5619 5614 5606 5603 5601 5601 5594 5583 5570 5549 5533 5521 5508 5496 5482 5470 5459 5448 5437 5429 5420 5411 5403 5396 5389 5383 5375 5368 5360 5351 5341 5330 5320 5309
5535 5542 5530 5586 5584 5594 5590 5595 5595 5604 5612 5605 5604 5599 5598 5596 5589 5574 5557 5537 5521 5507 5493 5479 5467 5456 5444 5433 5424 5416 5408 5400 5393 5386 5378 5372 5366 5359 5352 5342 5331 5321 5312 5302
5520 5538 5564 5570 5571 5576 5574 5583 5594 5597 5603 5597 5574 5570 5583 5577 5577 5564 5543 5522 5508 5492 5477 5461 5450 5440 5430 5421 5412 5405 5396 5389 5382 5374 5367 5362 5356 5349 5343 5333 5321 5312 5302 5294
5506 5524 5537 5591 5582 5578 5563 5559 5588 5588 5595 5583 5555 5562 5585 5551 5552 5541 5523 5506 5489 5472 5457 5446 5435 5427 5419 5409 5401 5393 5384 5377 5371 5363 5357 5352 5346 5340 5334 5325 5315 5305 5293 5285
5501 5514 5543 5583 5559 5560 5547 5588 5579 5578 5577 5567 5559 5554 5537 5532 5520 5509 5495 5479 5464 5451 5440 5429 5421 5414 5406 5397 5388 5378 5371 5365 5360 5355 5349 5343 5337 5332 5327 5317 5307 5297 5286 5280
5488 5503 5520 5562 5543 5552 5565 5554 5556 5554 5554 5543 5513 5502 5498 5489 5480 5473 5463 5452 5443 5433 5421 5413 5406 5402 5393 5383 5372 5365 5360 5355 5351 5346 5341 5335 5330 5323 5317 5309 5299 5288 5279 5274
5505 5523 5555 5543 5553 5550 5543 5545 5533 5532 5523 5505 5491 5481 5471 5463 5455 5447 5439 5431 5423 5416 5406 5397 5391 5386 5379 5366 5360 5354 5349 5345 5340 5336 5331 5326 5320 5314 5308 5299 5290 5279 5273 5270
5448 5518 5532 5530 5530 5524 5529 5526 5516 5512 5506 5492 5479 5464 5452 5445 5437 5430 5423 5417 5408 5400 5391 5382 5375 5368 5360 5353 5347 5341 5337 5333 5330 5325 5322 5315 5310 5305 5297 5290 5280 5271 5267 5264
5472 5494 5504 5521 5517 5515 5510 5507 5496 5496 5484 5479 5462 5447 5438 5429 5425 5417 5409 5400 5394 5387 5378 5367 5359 5352 5346 5339 5334 5330 5327 5324 5319 5316 5310 5304 5300 5293 5284 5278 5273 5266 5261 5258
5475 5489 5493 5501 5493 5506 5503 5489 5476 5467 5456 5456 5447 5440 5429 5413 5405 5401 5394 5386 5379 5372 5361 5352 5345 5338 5331 5325 5320 5318 5317 5313 5309 5305 5301 5295 5285 5279 5275 5267 5262 5259 5255 5253
5417 5427 5439 5450 5453 5454 5467 5464 5459 5456 5446 5438 5429 5420 5412 5401 5389 5384 5376 5370 5363 5355 5346 5338 5330 5323 5317 5312 5309 5306 5303 5301 5298 5296 5290 5282 5274 5268 5260 5255 5251 5253 5251 5248
5391 5401 5431 5434 5439 5433 5442 5441 5437 5432 5427 5419 5409 5398 5389 5384 5373 5367 5359 5352 5344 5338 5331 5324 5317 5310 5304 5299 5297 5294 5292 5291 5288 5284 5277 5269 5262 5257 5252 5250 5250 5248 5244 5242
5371 5380 5386 5401 5400 5405 5414 5418 5410 5399 5401 5396 5389 5376 5369 5360 5350 5348 5341 5334 5327 5320 5314 5309 5303 5296 5291 5287 5285 5284 5282 5279 5275 5270 5263 5257 5252 5248 5244 5241 5241 5241 5240 5235
5357 5369 5374 5383 5380 5384 5388 5399 5400 5382 5374 5374 5367 5357 5349 5341 5334 5327 5322 5316 5310 5303 5298 5293 5288 5282 5279 5276 5275 5272 5269 5265 5261 5256 5250 5246 5243 5239 5236 5234 5234 5233 5232 5228
5340 5360 5362 5365 5365 5366 5367 5366 5375 5365 5353 5357 5345 5339 5328 5324 5317 5308 5301 5296 5290 5285 5281 5277 5272 5269 5267 5264 5261 5260 5256 5252 5247 5242 5238 5235 5232 5229 5229 5227 5225 5224 5222 5219
5321 5334 5342 5343 5343 5344 5344 5339 5339 5339 5332 5331 5323 5315 5308 5303 5296 5288 5283 5278 5274 5269 5264 5261 5259 5256 5254 5251 5246 5244 5241 5237 5232 5228 5225 5224 5223 5221 5223 5221 5217 5216 5215 5212
5302 5307 5311 5315 5320 5322 5321 5315 5313 5313 5313 5312 5303 5296 5289 5282 5276 5270 5266 5265 5262 5257 5249 5249 5246 5243 5240 5237 5233 5230 5226 5222 5219 5216 5215 5214 5213 5213 5213 5211 5207 5208 5208 5207
5276 5280 5285 5290 5294 5296 5293 5290 5290 5288 5288 5287 5281 5274 5268 5262 5258 5256 5254 5250 5246 5242 5238 5236 5233 5229 5225 5222 5220 5216 5211 5208 5206 5204 5203 5203 5203 5203 5201 5201 5198 5200 5198 5201
5253 5254 5259 5264 5265 5268 5269 5268 5266 5265 5264 5263 5261 5256 5250 5245 5243 5240 5240 5237 5230 5229 5228 5224 5220 5217 5213 5209 5205 5200 5197 5195 5192 5191 5189 5191 5190 5190 5189 5187 5187 5189 5190 5194
5232 5235 5239 5243 5246 5246 5245 5243 5242 5243 5243 5240 5237 5235 5233 5231 5229 5226 5225 5225 5218 5216 5213 5211 5208 5204 5198 5193 5189 5186 5184 5182 5180 5179 5178 5177 5175 5177 5177 5175 5174 5176 5180 5186
5215 5217 5218 5219 5220 5218 5220 5222 5225 5225 5224 5223 5224 5224 5223 5221 5219 5217 5213 5208 5205 5201 5200 5199 5195 5188 5183 5179 5176 5174 5171 5170 5169 5166 5164 5162 5161 5162 5164 5163 5163 5165 5171 5177
5206 5208 5209 5210 5212 5214 5212 5208 5208 5207 5207 5206 5205 5207 5207 5204 5200 5199 5199 5195 5190 5186 5184 5184 5180 5174 5169 5165 5163 5161 5159 5157 5156 5152 5150 5149 5149 5150 5150 5151 5151 5155 5161 5168
5199 5202 5202 5204 5203 5200 5199 5198 5198 5197 5196 5195 5192 5191 5188 5186 5188 5182 5180 5176 5174 5170 5168 5168 5165 5159 5155 5152 5150 5147 5145 5142 5140 5138 5137 5133 5135 5136 5137 5137 5139 5145 5150 5158
5189 5187 5184 5183 5186 5187 5187 5189 5187 5187 5187 5183 5179 5176 5173 5171 5170 5165 5163 5160 5158 5157 5154 5149 5146 5144 5141 5139 5136 5133 5129 5127 5125 5125 5123 5120 5121 5121 5122 5123 5127 5132 5138 5145
5183 5181 5178 5176 5173 5173 5174 5176 5175 5172 5171 5171 5168 5161 5160 5157 5154 5152 5150 5147 5145 5143 5139 5135 5133 5130 5127 5125 5122 5118 5115 5113 5112 5110 5107 5106 5106 5106 5107 5109 5114 5120 5126 5133